| time (UTC) | temp F | wind direction | speed MPH | gust MPH | rain 1hr in | rain 24hr in | rain mn in | humidity % | barometer mb |
| 20260504201511 | 73 | 36 | 8.0 | 15.0 | 0.00 | 0.03 | 0.00 | 32 | 1006.8 |
| 20260504200009 | 73 | 46 | 7.0 | 15.0 | 0.00 | 0.03 | 0.00 | 33 | 1006.8 |
| 20260504194508 | 73 | 339 | 6.0 | 13.0 | 0.00 | 0.03 | 0.00 | 34 | 1006.8 |
| 20260504193005 | 72 | 335 | 5.0 | 13.0 | 0.00 | 0.03 | 0.00 | 35 | 1006.8 |
| 20260504191505 | 72 | 54 | 6.0 | 13.0 | 0.00 | 0.03 | 0.00 | 35 | 1007.0 |
| 20260504190003 | 72 | 53 | 5.0 | 14.0 | 0.00 | 0.03 | 0.00 | 37 | 1007.1 |
| 20260504184626 | 71 | 34 | 7.0 | 15.0 | 0.00 | 0.03 | 0.00 | 37 | 1007.2 |
| 20260504183057 | 71 | 25 | 7.0 | 12.0 | 0.00 | 0.03 | 0.00 | 38 | 1007.3 |
| 20260504181557 | 70 | 1 | 8.0 | 15.0 | 0.00 | 0.03 | 0.00 | 38 | 1007.3 |
| 20260504180055 | 70 | 18 | 7.0 | 13.0 | 0.00 | 0.03 | 0.00 | 37 | 1007.3 |
| 20260504174550 | 69 | 39 | 6.0 | 14.0 | 0.00 | 0.03 | 0.00 | 41 | 1007.5 |
| 20260504173048 | 68 | 31 | 6.0 | 14.0 | 0.00 | 0.03 | 0.00 | 42 | 1007.5 |
| 20260504171547 | 67 | 350 | 8.0 | 16.0 | 0.00 | 0.03 | 0.00 | 42 | 1007.6 |
| 20260504120115 | 51 | 91 | 0.0 | 5.0 | 0.00 | 0.03 | 0.00 | 73 | 1006.9 |
| 20260504110104 | 51 | 113 | 1.0 | 3.0 | 0.00 | 0.03 | 0.00 | 75 | 1007.0 |
| 20260504081537 | 52 | 338 | 0.0 | 0.0 | 0.00 | 0.03 | 0.00 | 73 | 1006.5 |
| 20260504050016 | 63 | 96 | 0.0 | 0.0 | 0.00 | 0.03 | 0.03 | 48 | 1006.8 |
| 20260504044514 | 65 | 96 | 0.0 | 2.0 | 0.03 | 0.03 | 0.03 | 44 | 1006.8 |
| 20260504043014 | 66 | 113 | 1.0 | 2.0 | 0.03 | 0.03 | 0.03 | 41 | 1006.8 |
| 20260504041514 | 66 | 114 | 2.0 | 3.0 | 0.03 | 0.03 | 0.03 | 40 | 1006.8 |
| 20260504040014 | 65 | 77 | 0.0 | 0.0 | 0.03 | 0.03 | 0.03 | 45 | 1006.7 |
| 20260504034520 | 67 | 77 | 0.0 | 0.0 | 0.00 | 0.00 | 0.00 | 41 | 1006.6 |
| 20260504033022 | 69 | 250 | 0.0 | 0.0 | 0.00 | 0.00 | 0.00 | 35 | 1006.5 |
| 20260504031512 | 72 | 250 | 0.0 | 1.0 | 0.00 | 0.00 | 0.00 | 31 | 1006.4 |
| 20260504030011 | 74 | 250 | 0.0 | 1.0 | 0.00 | 0.00 | 0.00 | 29 | 1006.4 |
| 20260504024533 | 77 | 255 | 0.0 | 3.0 | 0.00 | 0.00 | 0.00 | 27 | 1006.3 |
| 20260504023009 | 78 | 274 | 2.0 | 6.0 | 0.00 | 0.00 | 0.00 | 25 | 1006.4 |
| 20260504021508 | 78 | 281 | 0.0 | 6.0 | 0.00 | 0.00 | 0.00 | 25 | 1006.5 |
| 20260504020007 | 78 | 259 | 2.0 | 9.0 | 0.00 | 0.00 | 0.00 | 25 | 1006.6 |
| 20260504014506 | 78 | 236 | 3.0 | 8.0 | 0.00 | 0.00 | 0.00 | 24 | 1006.7 |
| 20260504013003 | 78 | 289 | 5.0 | 8.0 | 0.00 | 0.00 | 0.00 | 24 | 1006.8 |
| 20260504011503 | 78 | 283 | 4.0 | 8.0 | 0.00 | 0.00 | 0.00 | 23 | 1006.9 |
| 20260504010002 | 78 | 290 | 4.0 | 10.0 | 0.00 | 0.00 | 0.00 | 23 | 1007.0 |
| 20260504004622 | 79 | 293 | 3.0 | 9.0 | 0.00 | 0.00 | 0.00 | 22 | 1007.2 |
| 20260504003102 | 80 | 290 | 2.0 | 7.0 | 0.00 | 0.00 | 0.00 | 21 | 1007.4 |
| 20260504001601 | 80 | 251 | 3.0 | 10.0 | 0.00 | 0.00 | 0.00 | 21 | 1007.6 |
| 20260504000055 | 80 | 212 | 1.0 | 7.0 | 0.00 | 0.00 | 0.00 | 21 | 1007.7 |
| 20260503234552 | 80 | 200 | 5.0 | 11.0 | 0.00 | 0.00 | 0.00 | 19 | 1007.9 |
| 20260503233051 | 80 | 252 | 5.0 | 11.0 | 0.00 | 0.00 | 0.00 | 20 | 1008.0 |
| 20260503231553 | 79 | 142 | 5.0 | 10.0 | 0.00 | 0.00 | 0.00 | 22 | 1008.2 |
| 20260503230050 | 79 | 172 | 4.0 | 9.0 | 0.00 | 0.00 | 0.00 | 22 | 1008.5 |
| 20260503224542 | 80 | 165 | 3.0 | 10.0 | 0.00 | 0.00 | 0.00 | 21 | 1008.7 |
| 20260503223040 | 79 | 283 | 2.0 | 7.0 | 0.00 | 0.00 | 0.00 | 21 | 1009.0 |
| 20260503221539 | 79 | 201 | 5.0 | 11.0 | 0.00 | 0.00 | 0.00 | 22 | 1009.2 |
| 20260503220039 | 79 | 276 | 4.0 | 8.0 | 0.00 | 0.00 | 0.00 | 20 | 1009.4 |
| 20260503214533 | 80 | 172 | 5.0 | 8.0 | 0.00 | 0.00 | 0.00 | 20 | 1009.6 |
| 20260503213030 | 78 | 277 | 1.0 | 6.0 | 0.00 | 0.00 | 0.00 | 21 | 1009.8 |
| 20260503211536 | 79 | 124 | 2.0 | 10.0 | 0.00 | 0.00 | 0.00 | 22 | 1010.0 |
| 20260503210024 | 78 | 148 | 0.0 | 7.0 | 0.00 | 0.00 | 0.00 | 25 | 1010.3 |
| 20260503204521 | 77 | 76 | 2.0 | 8.0 | 0.00 | 0.00 | 0.00 | 28 | 1010.5 |
| 20260503203022 | 74 | 253 | 0.0 | 7.0 | 0.00 | 0.00 | 0.00 | 29 | 1010.6 |